Theta_e
340 340 341 345 347 350 350 350 349 352 353 351 351 348 346 347 347 351 350 355 353 353 350 349 349 349 348 347 349 345 345 345 345 340 339 341 345 348 347 348 347 346 348
333 337 339 344 345 346 350 350 349 351 352 352 351 348 346 346 348 349 353 354 353 353 352 348 347 347 345 346 347 347 344 345 345 339 336 329 334 341 346 346 347 345 348
331 336 337 340 345 345 347 350 352 352 353 353 350 347 348 345 346 347 348 351 351 351 351 352 349 349 348 347 346 348 345 341 343 345 337 329 327 332 339 344 345 345 345
330 337 336 339 343 345 350 350 351 354 353 352 349 346 346 344 345 344 346 350 349 351 352 352 350 350 349 346 347 347 345 343 338 342 346 341 337 330 328 338 342 344 345
333 337 337 339 343 347 349 351 352 353 354 353 350 347 343 345 344 346 346 349 351 352 352 350 348 346 350 349 347 345 346 345 340 338 338 339 338 338 334 330 333 339 343
333 339 340 341 342 349 349 351 352 352 352 351 350 348 345 343 342 343 346 348 350 352 352 352 349 348 349 347 347 346 346 343 344 343 341 338 336 334 334 333 333 332 338
332 336 337 338 343 347 350 350 351 353 352 351 350 350 347 344 343 341 345 347 348 348 351 351 349 349 349 349 348 345 345 345 344 345 343 343 342 341 338 335 331 331 334
322 323 333 341 341 344 349 352 350 351 354 352 351 354 350 349 349 347 343 347 348 349 351 352 351 349 350 349 348 346 345 346 345 344 344 345 345 344 342 335 331 327 330
322 319 334 333 333 338 346 350 352 350 355 355 353 352 353 350 347 350 344 347 346 349 350 351 351 350 348 348 347 345 345 345 344 344 344 344 344 344 342 339 336 331 325
321 322 332 329 331 342 346 348 353 352 352 355 355 354 355 354 349 350 350 344 348 349 352 351 351 350 349 348 347 343 343 344 344 344 343 341 343 341 339 336 335 335 331
320 327 333 334 329 343 344 344 348 354 353 353 354 354 353 350 334 336 348 350 349 351 351 351 348 349 348 347 346 344 343 342 342 343 343 342 341 340 339 336 336 334 335
320 323 332 334 335 335 337 342 349 354 356 355 347 343 342 334 332 333 334 343 348 348 349 350 348 348 347 346 345 343 344 342 340 340 340 341 345 340 339 338 338 338 337
325 327 331 333 334 334 334 336 339 339 344 342 338 338 335 335 333 335 330 331 335 345 347 347 346 348 348 346 345 344 342 342 341 341 339 338 340 338 338 339 338 340 340
324 330 330 332 333 333 331 333 336 338 337 338 336 335 335 335 336 334 333 331 332 341 346 348 348 348 347 348 346 345 342 342 342 342 341 340 339 337 338 337 337 337 336
317 321 330 332 334 333 334 334 334 336 339 336 334 333 334 334 335 332 333 332 331 339 348 348 348 348 347 348 346 344 343 341 341 342 342 341 342 341 340 338 336 336 334
323 328 329 331 331 333 335 336 335 334 336 336 334 334 332 331 332 332 331 333 342 345 345 345 347 346 350 338 337 344 343 343 342 339 340 341 342 341 338 339 342 339 335
328 329 328 328 330 335 331 330 331 333 333 336 338 333 332 330 329 335 336 336 339 341 341 344 345 344 345 334 329 337 344 344 343 342 342 341 344 339 338 332 336 336 337
328 328 329 329 330 333 331 333 335 334 334 335 336 335 334 333 333 333 334 334 336 339 340 339 340 341 345 333 327 328 341 343 343 344 343 341 338 337 338 336 332 332 331
326 328 330 330 330 329 329 328 330 330 332 331 334 336 336 335 334 332 333 335 337 336 338 341 341 339 340 329 322 326 334 339 340 341 343 343 340 333 329 338 333 332 332
326 325 326 327 329 330 330 329 329 329 328 331 333 333 334 335 334 333 333 335 336 336 339 338 337 335 341 332 317 322 335 338 338 339 341 330 338 327 323 335 336 333 334
324 325 325 324 325 326 324 322 324 324 328 329 330 331 333 332 334 333 336 335 336 336 336 337 338 341 339 338 318 318 337 340 338 339 338 341 323 319 316 321 336 335 335
323 325 322 321 323 325 323 321 321 324 326 328 327 326 326 328 332 330 333 333 335 332 332 334 335 337 339 328 318 314 315 328 338 338 337 330 315 310 309 313 322 320 326
323 324 322 321 322 323 322 319 321 323 323 323 323 325 326 325 328 329 329 330 330 330 330 328 328 332 334 328 315 311 310 313 320 332 329 317 313 312 314 311 313 313 328
321 322 321 320 320 322 323 322 322 322 321 320 320 322 322 324 323 326 327 323 322 324 325 325 324 327 328 323 321 320 321 318 322 323 328 327 322 322 325 325 318 324 331
320 322 321 321 322 323 321 322 322 321 319 319 319 318 317 316 323 326 325 325 325 323 324 322 322 320 321 317 308 308 315 314 311 306 321 324 325 325 322 322 325 326 329
321 321 323 322 320 321 320 320 321 321 319 318 317 317 316 314 315 317 324 318 314 307 306 303 312 318 310 306 298 296 296 297 298 309 315 322 326 327 327 327 325 327 327
Wind_Speed
22 23 23 22 22 20 22 20 18 16 13 10 9 10 8 4 4 5 10 11 10 10 7 6 6 5 5 6 6 3 4 4 3 2 2 3 6 5 5 5 5 7 7
18 23 24 24 24 24 22 20 19 18 14 11 10 6 7 3 5 5 8 12 11 10 9 6 6 6 5 6 6 5 3 3 4 3 1 1 4 4 6 5 6 7 6
20 25 25 25 23 24 24 20 19 20 16 13 9 3 3 3 6 7 6 9 12 10 8 9 6 7 6 6 5 7 8 5 4 5 4 2 5 1 3 8 8 7 3
17 26 27 24 25 24 21 22 18 20 16 15 13 15 11 11 9 8 6 7 11 11 10 9 9 6 5 5 7 6 4 4 4 2 5 3 3 2 3 3 3 4 1
20 27 28 28 24 22 22 21 20 17 18 16 16 14 13 9 4 7 8 8 9 11 11 8 6 7 6 8 7 6 7 5 4 4 2 4 3 3 4 4 4 2 2
7 26 23 19 18 20 20 20 21 20 18 18 13 16 17 9 7 6 8 8 7 7 9 10 8 7 6 7 7 7 7 6 5 4 5 4 4 4 4 5 5 4 3
12 7 17 16 17 19 21 20 21 20 21 20 18 14 13 9 7 8 6 10 8 5 9 11 9 8 8 8 7 7 7 6 5 7 5 4 6 3 3 3 3 4 2
23 20 24 14 14 14 18 21 23 22 23 22 20 13 13 9 5 7 5 9 9 10 13 12 12 10 9 7 7 4 4 5 5 6 5 4 4 4 5 4 4 2 3
18 27 32 19 24 22 18 22 22 23 22 21 17 17 9 13 12 7 7 6 8 9 11 13 12 10 8 7 7 5 6 5 5 6 6 5 4 4 3 3 4 4 4
5 13 13 16 28 22 15 8 15 24 23 20 18 18 15 11 7 6 7 7 5 7 12 12 10 8 8 8 7 5 5 6 5 4 6 5 4 4 4 3 3 3 4
4 15 11 15 13 12 14 18 18 20 19 19 18 17 14 10 10 6 7 5 3 7 9 10 8 9 9 7 9 7 7 7 7 6 6 7 6 4 4 4 3 3 3
5 7 6 6 1 8 3 8 22 15 14 14 7 8 10 15 12 9 10 13 4 5 9 8 8 8 9 8 8 8 7 8 7 7 6 7 5 6 6 5 6 6 6
8 7 14 13 11 13 13 13 11 8 6 10 16 14 8 8 6 7 15 19 15 10 5 8 9 10 9 8 7 8 9 7 9 8 7 7 6 6 5 6 7 6 5
12 7 3 6 4 8 8 9 9 8 7 8 13 18 18 15 13 12 13 9 18 20 7 8 10 9 9 11 10 10 8 7 8 8 8 8 7 7 8 6 7 6 4
12 15 11 7 7 4 3 4 8 6 7 9 8 6 2 5 7 14 22 25 22 14 8 8 8 7 7 7 10 10 9 8 7 7 7 8 9 11 10 6 6 6 5
5 9 11 11 11 10 2 4 4 5 6 6 7 6 5 2 6 4 6 2 3 6 7 7 7 6 6 11 14 13 10 9 8 7 7 7 10 10 14 15 14 10 7
4 6 5 5 6 8 4 5 2 3 5 4 4 4 4 4 3 4 2 2 6 5 7 7 8 7 7 11 7 14 9 9 9 9 9 7 7 9 7 7 10 11 12
7 4 5 5 6 6 9 7 5 6 6 7 6 4 5 4 5 4 3 3 5 6 5 4 6 7 6 10 9 9 8 8 9 10 9 9 7 7 8 7 7 7 7
4 6 4 2 3 6 7 8 9 8 10 10 10 8 6 2 4 5 3 2 3 3 1 5 5 2 6 10 11 7 5 6 8 6 7 9 9 10 12 8 8 7 6
2 6 6 6 5 5 7 10 8 9 9 8 7 6 6 6 4 5 6 4 2 3 2 3 4 6 5 8 5 6 3 4 4 8 7 12 11 12 13 8 8 8 7
11 8 8 5 5 6 8 7 7 7 4 5 4 5 5 4 5 2 3 3 3 2 5 5 3 7 5 4 9 13 6 6 8 15 6 6 13 14 15 14 10 11 8
7 7 4 4 6 7 7 7 7 6 6 4 4 4 4 3 4 3 2 2 1 2 4 3 3 4 5 9 9 13 16 9 7 6 4 2 8 3 4 6 10 13 10
6 5 5 6 5 6 6 6 5 7 6 6 6 0 3 2 3 2 2 2 3 2 3 2 3 2 4 4 10 6 5 7 6 4 3 1 5 3 4 9 10 5 5
5 5 6 5 5 5 5 5 5 5 6 7 8 7 3 4 2 1 1 2 3 4 3 3 3 3 3 3 5 5 6 7 5 6 6 6 6 7 7 6 6 5 7
2 6 6 5 5 5 4 4 4 6 6 7 6 6 5 3 3 4 3 1 3 3 2 0 1 2 3 1 2 1 2 3 4 7 4 3 3 4 4 4 5 5 6
7 5 5 5 2 3 3 4 6 5 5 5 5 5 4 5 4 4 5 7 6 6 3 5 3 1 1 6 2 7 8 8 5 3 5 7 6 6 6 6 6 6 8
Wind_Direction
186 173 166 161 162 156 165 168 169 175 171 177 180 189 189 173 177 174 179 186 177 181 180 190 193 171 169 183 182 175 191 227 210 129 306 291 269 254 234 226 216 225 213
166 169 164 163 168 167 159 170 173 171 180 181 186 182 186 187 189 190 177 180 179 177 180 188 190 174 162 182 182 170 180 201 198 194 160 276 320 274 244 239 239 230 222
166 169 167 170 167 170 170 161 167 173 176 179 175 152 152 199 200 200 178 176 175 184 177 189 182 174 175 187 186 181 176 182 215 206 157 130 222 284 257 238 234 233 202
165 170 175 169 174 174 168 165 161 171 175 176 181 190 196 198 204 196 188 169 177 185 191 192 197 169 163 174 192 187 179 153 195 231 230 236 155 178 320 316 294 246 103
166 176 174 177 174 166 168 167 165 169 175 179 186 191 203 209 168 185 177 178 177 184 193 191 194 189 182 195 188 189 200 190 182 183 162 230 260 215 187 266 295 337 187
179 175 178 165 166 161 166 170 171 172 181 185 187 194 200 198 186 161 182 182 185 180 180 193 196 196 196 205 196 197 203 200 202 184 186 187 185 209 195 222 242 223 267
61 107 137 140 160 170 173 173 176 176 180 188 193 195 197 187 179 181 165 173 185 185 190 185 192 195 192 198 184 190 203 195 189 199 212 204 219 204 191 197 241 217 276
25 356 324 158 159 180 189 177 182 182 183 189 190 192 190 190 175 189 166 184 177 188 187 187 189 191 191 185 192 176 197 188 183 189 213 213 212 206 219 191 172 294 243
31 8 351 350 0 343 212 197 183 189 188 189 186 192 174 187 198 192 180 180 180 187 189 184 179 180 173 179 174 170 177 204 195 199 206 201 194 200 203 192 176 183 223
121 72 14 25 332 332 306 252 206 195 190 184 185 191 184 173 174 184 189 196 192 181 179 177 168 164 170 178 167 173 188 183 211 200 206 206 187 183 176 187 179 177 185
357 40 77 147 220 278 275 279 242 200 192 184 192 190 173 116 64 28 328 204 190 156 163 158 171 173 179 176 169 186 192 188 202 187 207 210 194 173 174 173 180 200 181
310 11 25 36 176 263 254 308 204 173 181 178 86 59 96 93 85 66 23 293 113 217 160 166 176 177 175 176 172 189 196 183 205 206 204 212 188 188 178 179 194 201 198
350 332 14 12 1 340 357 19 62 77 117 133 112 113 102 121 140 127 76 28 325 283 186 173 183 178 175 177 183 193 205 190 194 208 194 213 203 195 190 186 195 204 205
352 352 25 356 359 339 2 1 29 45 66 125 134 145 165 169 180 176 139 173 243 255 207 198 200 184 172 184 190 205 207 197 197 204 190 197 210 203 195 195 202 193 192
345 337 7 360 6 285 359 16 32 31 55 62 66 72 153 246 188 175 184 193 205 235 235 192 207 188 189 188 190 204 207 201 205 212 208 202 205 217 198 177 201 186 186
176 317 8 12 341 336 347 40 72 56 59 99 128 170 169 209 239 156 154 258 288 214 213 205 197 196 207 212 185 195 203 209 196 215 235 230 213 216 210 193 187 180 178
136 85 62 337 323 351 27 87 94 84 73 36 79 154 167 181 174 134 69 320 269 240 231 216 213 213 211 233 174 209 204 203 201 204 210 216 218 208 210 204 187 185 191
101 82 60 343 354 2 35 43 52 63 56 48 57 140 167 164 175 192 202 267 265 235 212 251 235 217 221 222 234 203 225 213 201 213 204 208 215 211 202 190 191 204 202
13 118 100 11 18 40 41 51 46 45 48 42 35 21 29 127 168 189 175 72 337 250 178 219 235 238 265 239 214 178 207 243 236 219 207 204 215 214 200 186 190 202 219
194 81 78 44 52 33 60 55 47 46 37 31 29 27 15 26 67 145 164 160 118 275 214 263 246 263 252 265 215 185 230 253 298 287 238 223 215 211 205 188 180 202 201
82 61 51 37 48 56 57 46 40 42 77 62 50 26 26 23 19 44 53 116 133 242 269 238 266 299 310 281 213 210 197 205 231 251 238 233 221 220 207 201 191 204 175
110 106 94 66 48 54 61 47 32 7 8 31 87 64 18 19 358 18 24 337 165 207 233 229 243 268 263 246 213 201 214 222 226 238 238 146 32 238 253 237 228 187 172
100 115 104 80 63 69 78 62 16 13 2 11 6 232 149 349 313 336 42 4 351 42 42 43 344 340 16 47 38 80 246 263 257 280 289 185 249 216 210 218 230 256 205
91 96 90 72 54 48 64 71 35 19 10 0 345 330 337 172 230 319 308 111 47 38 52 37 14 356 360 62 21 16 0 22 17 319 315 288 242 229 237 226 194 218 224
89 88 84 82 65 57 36 48 34 32 2 349 350 350 356 330 276 259 239 264 226 184 164 55 36 31 339 2 219 52 356 326 335 335 289 280 254 242 216 225 221 213 215
83 84 80 78 33 77 55 43 23 23 5 336 329 314 318 313 303 285 272 252 247 163 129 135 161 63 343 314 260 216 227 224 222 232 250 243 238 242 242 217 212 212 219